FW3095 Weather Reports


Display with metric or nautical units.
time (UTC)temp
F
wind
direction
speed
MPH
gust
MPH
rain 1hr
in
rain 24hr
in
rain mn
in
humidity
%
barometer
mb
20260506001559 47 135 0.0 0.0 0.06 0.67 0.67 95 980.3
20260506000059 47 135 0.0 0.0 0.07 0.67 0.67 95 980.0
20260505234554 47 134 0.0 0.0 0.06 0.65 0.65 95 979.8
20260505233104 47 135 0.0 3.0 0.05 0.63 0.63 95 980.1
20260505231552 47 258 0.0 0.0 0.03 0.61 0.61 95 980.0
20260505230053 47 258 0.0 1.0 0.02 0.60 0.60 95 980.2
20260505224551 47 258 0.0 0.0 0.02 0.59 0.59 95 980.3
20260505223052 47 258 0.0 1.0 0.02 0.57 0.57 94 980.5
20260505221555 47 259 0.0 3.0 0.03 0.57 0.57 94 980.8
20260505220049 47 315 0.0 1.0 0.05 0.57 0.57 94 980.5
20260505214549 47 315 0.0 1.0 0.05 0.56 0.56 94 980.5
20260505213050 46 315 0.0 0.0 0.04 0.56 0.56 94 980.6
20260505211548 47 315 0.0 2.0 0.03 0.55 0.55 94 980.7
20260505210048 46 315 0.0 5.0 0.02 0.53 0.53 94 980.6
20260505204546 46 340 1.0 5.0 0.03 0.52 0.52 94 980.7
20260505203050 47 327 2.0 4.0 0.03 0.52 0.52 95 980.8
20260505201547 47 333 2.0 10.0 0.03 0.52 0.52 93 980.8
20260505200041 48 337 1.0 5.0 0.02 0.51 0.51 92 980.7
20260505194542 48 327 3.0 5.0 0.00 0.49 0.49 89 980.5
20260505193057 49 31 0.0 3.0 0.01 0.49 0.49 91 980.2
20260505191541 48 51 1.0 4.0 0.01 0.49 0.49 91 980.3
20260505190040 48 20 3.0 9.0 0.02 0.49 0.49 91 980.1
20260505184534 48 62 0.0 1.0 0.04 0.49 0.49 94 980.3
20260505183034 48 62 0.0 3.0 0.05 0.48 0.48 92 980.4
20260505181534 48 62 0.0 3.0 0.06 0.48 0.48 91 980.4
20260505180037 49 275 0.0 0.0 0.07 0.47 0.47 88 980.5
20260505174530 49 275 0.0 1.0 0.10 0.45 0.45 88 980.8
20260505173028 49 275 0.0 2.0 0.08 0.43 0.43 88 980.9
20260505171528 49 275 0.0 3.0 0.08 0.42 0.42 88 980.6
20260505170024 50 59 0.0 1.0 0.05 0.39 0.39 85 980.6
20260505164523 51 59 0.0 2.0 0.01 0.35 0.35 79 980.5
20260505163025 51 59 0.0 1.0 0.01 0.35 0.35 78 980.4
20260505161520 51 59 1.0 3.0 0.00 0.34 0.34 77 980.4
20260505153022 52 299 1.0 4.0 0.00 0.34 0.34 76 980.7
20260505151519 52 338 1.0 5.0 0.00 0.34 0.34 75 980.8
20260505124604 57 232 5.0 10.0 0.00 0.34 0.34 93 978.7
20260505123112 56 212 3.0 9.0 0.00 0.34 0.34 94 978.6
20260505121555 56 221 3.0 8.0 0.00 0.34 0.34 94 978.8
20260505114553 55 247 1.0 2.0 0.00 0.34 0.34 95 977.8
20260505113054 55 247 1.0 4.0 0.00 0.34 0.34 95 977.9
20260505111552 55 244 3.0 7.0 0.00 0.34 0.34 95 978.3
20260505101547 54 250 2.0 5.0 0.00 0.34 0.34 95 977.5
20260505100046 54 230 2.0 4.0 0.00 0.34 0.34 95 977.0
20260505094543 55 231 3.0 7.0 0.00 0.34 0.34 95 976.7
20260505093042 55 231 4.0 8.0 0.00 0.34 0.34 95 976.6
20260505091546 55 240 3.0 6.0 0.00 0.34 0.34 94 976.4
20260505090040 55 245 3.0 6.0 0.00 0.34 0.34 93 976.1
20260505084558 56 222 4.0 6.0 0.00 0.34 0.34 93 976.1
20260505083057 56 260 7.0 11.0 0.01 0.34 0.34 93 976.2
20260505081553 56 240 6.0 12.0 0.01 0.34 0.34 92 975.9
20260505080044 56 188 5.0 13.0 0.01 0.34 0.34 92 975.1
20260505074535 57 165 6.0 18.0 0.01 0.34 0.34 91 974.9
20260505073048 56 145 4.0 14.0 0.00 0.33 0.33 93 975.5
20260505071544 55 219 1.0 9.0 0.00 0.33 0.33 96 976.3
20260505070041 55 210 1.0 7.0 0.03 0.33 0.33 96 976.3
20260505064534 55 193 3.0 9.0 0.06 0.33 0.33 96 976.2
20260505063036 55 154 6.0 13.0 0.10 0.33 0.33 96 976.3
20260505061530 56 158 10.0 19.0 0.16 0.33 0.33 96 976.3
20260505060048 56 176 10.0 14.0 0.15 0.30 0.30 96 976.7
20260505054522 56 226 0.0 5.0 0.17 0.27 0.27 95 977.3
20260505053020 56 238 3.0 5.0 0.18 0.22 0.22 94 977.7
20260505051517 57 264 5.0 7.0 0.17 0.17 0.17 93 977.6
20260505041606 64 311 8.0 15.0 0.00 0.00 0.00 73 976.4
20260505040058 66 288 3.0 11.0 0.00 0.00 0.00 67 975.6
20260505034555 66 268 3.0 10.0 0.00 0.00 0.00 66 975.3
20260505033055 67 226 1.0 5.0 0.00 0.00 0.00 63 974.2
20260505031555 67 221 3.0 9.0 0.00 0.00 0.00 63 974.4
20260505030110 67 226 2.0 8.0 0.00 0.00 0.00 63 974.4
20260505024558 67 245 2.0 6.0 0.00 0.00 0.00 63 974.3
20260505023054 67 228 1.0 8.0 0.00 0.00 0.00 62 974.3
20260505021553 68 213 2.0 8.0 0.00 0.00 0.00 61 974.6
20260505020054 68 225 2.0 8.0 0.00 0.00 0.00 60 974.4
20260505014606 69 237 1.0 9.0 0.00 0.00 0.00 59 974.2
20260505013054 69 240 3.0 9.0 0.00 0.00 0.00 58 974.1
20260505011556 70 205 1.0 10.0 0.00 0.00 0.00 57 973.9
20260505010058 70 233 2.0 7.0 0.00 0.00 0.00 56 973.8
20260505004552 71 231 3.0 10.0 0.00 0.00 0.00 54 973.9
20260505003057 72 207 5.0 12.0 0.00 0.00 0.00 53 973.8